Year,Month,Day,Hour,Minute,Value (Times are PST for windgust in km/hr)
2012,01,24,00,00,1.60
2012,01,24,00,25,1.60
2012,01,24,00,26,1.60
2012,01,24,00,27,4.80
2012,01,24,00,28,4.80
2012,01,24,00,29,1.60
2012,01,24,00,32,1.60
2012,01,24,00,33,3.20
2012,01,24,00,34,3.20
2012,01,24,00,38,1.60
2012,01,24,01,17,1.60
2012,01,24,01,21,1.60
2012,01,24,01,23,1.60
2012,01,24,01,25,4.80
2012,01,24,01,34,1.60
2012,01,24,01,35,6.40
2012,01,24,01,36,4.80
2012,01,24,01,37,4.80
2012,01,24,01,38,3.20
2012,01,24,01,41,1.60
2012,01,24,01,42,3.20
2012,01,24,01,43,1.60
2012,01,24,01,57,1.60
2012,01,24,01,58,1.60
2012,01,24,01,59,4.80
2012,01,24,02,00,4.80
2012,01,24,02,01,3.20
2012,01,24,02,02,3.20
2012,01,24,02,05,6.40
2012,01,24,02,06,6.40
2012,01,24,02,07,6.40
2012,01,24,02,08,6.40
2012,01,24,02,09,3.20
2012,01,24,02,10,4.80
2012,01,24,02,11,4.80
2012,01,24,02,18,1.60
2012,01,24,02,19,1.60
2012,01,24,02,22,1.60
2012,01,24,02,28,1.60
2012,01,24,02,33,3.20
2012,01,24,02,34,6.40
2012,01,24,02,35,6.40
2012,01,24,02,36,3.20
2012,01,24,02,37,1.60
2012,01,24,02,38,4.80
2012,01,24,02,39,11.30
2012,01,24,02,40,9.60
2012,01,24,02,41,14.50
2012,01,24,02,42,14.50
2012,01,24,02,43,11.30
2012,01,24,02,44,8.10
2012,01,24,02,45,6.40
2012,01,24,02,46,6.40
2012,01,24,02,47,3.20
2012,01,24,02,48,3.20
2012,01,24,02,49,1.60
2012,01,24,02,52,6.40
2012,01,24,02,53,4.80
2012,01,24,02,54,8.10
2012,01,24,02,55,6.40
2012,01,24,02,56,4.80
2012,01,24,02,59,1.60
2012,01,24,03,00,3.20
2012,01,24,03,01,1.60
2012,01,24,03,03,3.20
2012,01,24,03,04,4.80
2012,01,24,03,05,6.40
2012,01,24,03,06,6.40
2012,01,24,03,07,3.20
2012,01,24,03,10,3.20
2012,01,24,03,11,3.20
2012,01,24,03,12,1.60
2012,01,24,03,13,1.60
2012,01,24,03,14,4.80
2012,01,24,03,15,4.80
2012,01,24,03,16,3.20
2012,01,24,03,17,3.20
2012,01,24,03,20,4.80
2012,01,24,03,21,9.60
2012,01,24,03,22,6.40
2012,01,24,03,23,4.80
2012,01,24,03,24,6.40
2012,01,24,03,25,4.80
2012,01,24,03,27,3.20
2012,01,24,03,28,1.60
2012,01,24,03,32,1.60
2012,01,24,03,41,1.60
2012,01,24,03,42,3.20
2012,01,24,03,58,1.60
2012,01,24,04,48,1.60
2012,01,24,04,59,1.60
2012,01,24,05,08,1.60
2012,01,24,05,11,3.20
2012,01,24,05,12,1.60
2012,01,24,05,13,1.60
2012,01,24,05,14,3.20
2012,01,24,05,15,3.20
2012,01,24,05,16,3.20
2012,01,24,05,17,6.40
2012,01,24,05,18,1.60
2012,01,24,05,19,3.20
2012,01,24,05,20,3.20
2012,01,24,05,21,4.80
2012,01,24,05,22,3.20
2012,01,24,05,23,6.40
2012,01,24,05,24,11.30
2012,01,24,05,25,17.70
2012,01,24,05,26,9.60
2012,01,24,05,27,12.90
2012,01,24,05,28,9.60
2012,01,24,05,29,4.80
2012,01,24,05,30,14.50
2012,01,24,05,31,14.50
2012,01,24,05,32,4.80
2012,01,24,05,33,8.10
2012,01,24,05,34,9.60
2012,01,24,05,35,6.40
2012,01,24,05,36,9.60
2012,01,24,05,37,6.40
2012,01,24,05,38,6.40
2012,01,24,05,39,3.20
2012,01,24,05,40,3.20
2012,01,24,05,42,8.10
2012,01,24,05,43,8.10
2012,01,24,05,44,3.20
2012,01,24,05,45,4.80
2012,01,24,05,46,3.20
2012,01,24,05,47,6.40
2012,01,24,05,48,8.10
2012,01,24,05,49,6.40
2012,01,24,05,50,8.10
2012,01,24,05,51,9.60
2012,01,24,05,52,9.60
2012,01,24,05,53,4.80
2012,01,24,05,54,4.80
2012,01,24,05,55,6.40
2012,01,24,05,56,8.10
2012,01,24,05,57,9.60
2012,01,24,05,58,8.10
2012,01,24,05,59,8.10
2012,01,24,06,00,6.40
2012,01,24,06,01,8.10
2012,01,24,06,02,4.80
2012,01,24,06,03,6.40
2012,01,24,06,04,3.20
2012,01,24,06,05,6.40
2012,01,24,06,06,4.80
2012,01,24,06,07,6.40
2012,01,24,06,08,4.80
2012,01,24,06,10,6.40
2012,01,24,06,11,6.40
2012,01,24,06,12,6.40
2012,01,24,06,13,6.40
2012,01,24,06,14,1.60
2012,01,24,06,18,1.60
2012,01,24,06,19,8.10
2012,01,24,06,20,4.80
2012,01,24,06,21,4.80
2012,01,24,06,22,3.20
2012,01,24,06,23,8.10
2012,01,24,06,24,6.40
2012,01,24,06,25,6.40
2012,01,24,06,26,6.40
2012,01,24,06,27,14.50
2012,01,24,06,28,8.10
2012,01,24,06,29,4.80
2012,01,24,06,30,3.20
2012,01,24,06,31,4.80
2012,01,24,06,32,6.40
2012,01,24,06,33,9.60
2012,01,24,06,34,3.20
2012,01,24,06,36,3.20
2012,01,24,06,37,3.20
2012,01,24,06,38,8.10
2012,01,24,06,39,6.40
2012,01,24,06,40,6.40
2012,01,24,06,41,4.80
2012,01,24,06,42,4.80
2012,01,24,06,44,4.80
2012,01,24,06,45,4.80
2012,01,24,06,49,1.60
2012,01,24,07,05,1.60
2012,01,24,07,08,6.40
2012,01,24,07,09,4.80
2012,01,24,07,10,4.80
2012,01,24,07,11,1.60
2012,01,24,07,13,3.20
2012,01,24,07,14,3.20
2012,01,24,07,15,1.60
2012,01,24,07,25,1.60
2012,01,24,07,29,1.60
2012,01,24,07,39,3.20
2012,01,24,07,40,3.20
2012,01,24,07,41,1.60
2012,01,24,07,42,11.30
2012,01,24,07,43,16.10
2012,01,24,07,44,16.10
2012,01,24,07,45,14.50
2012,01,24,07,46,4.80
2012,01,24,07,47,4.80
2012,01,24,07,48,4.80
2012,01,24,07,49,16.10
2012,01,24,07,50,14.50
2012,01,24,07,51,8.10
2012,01,24,07,52,8.10
2012,01,24,07,53,17.70
2012,01,24,07,54,17.70
2012,01,24,07,55,17.70
2012,01,24,07,56,25.70
2012,01,24,07,57,17.70
2012,01,24,07,58,27.40
2012,01,24,07,59,22.50
2012,01,24,08,00,22.50
2012,01,24,08,01,29.00
2012,01,24,08,02,22.50
2012,01,24,08,03,27.40
2012,01,24,08,04,32.20
2012,01,24,08,05,24.20
2012,01,24,08,06,22.50
2012,01,24,08,07,20.90
2012,01,24,08,08,25.70
2012,01,24,08,09,24.20
2012,01,24,08,10,29.00
2012,01,24,08,11,24.20
2012,01,24,08,12,25.70
2012,01,24,08,13,22.50
2012,01,24,08,14,14.50
2012,01,24,08,15,17.70
2012,01,24,08,16,19.30
2012,01,24,08,17,24.20
2012,01,24,08,18,16.10
2012,01,24,08,19,24.20
2012,01,24,08,20,17.70
2012,01,24,08,21,20.90
2012,01,24,08,22,25.70
2012,01,24,08,23,11.30
2012,01,24,08,24,20.90
2012,01,24,08,25,19.30
2012,01,24,08,26,19.30
2012,01,24,08,27,17.70
2012,01,24,08,28,20.90
2012,01,24,08,29,27.40
2012,01,24,08,30,20.90
2012,01,24,08,31,9.60
2012,01,24,08,32,11.30
2012,01,24,08,33,17.70
2012,01,24,08,34,20.90
2012,01,24,08,35,22.50
2012,01,24,08,36,24.20
2012,01,24,08,37,32.20
2012,01,24,08,38,29.00
2012,01,24,08,39,24.20
2012,01,24,08,40,29.00
2012,01,24,08,41,22.50
2012,01,24,08,42,22.50
2012,01,24,08,43,22.50
2012,01,24,08,44,22.50
2012,01,24,08,45,29.00
2012,01,24,08,46,25.70
2012,01,24,08,47,20.90
2012,01,24,08,48,22.50
2012,01,24,08,49,35.40
2012,01,24,08,50,25.70
2012,01,24,08,51,17.70
2012,01,24,08,52,29.00
2012,01,24,08,53,35.40
2012,01,24,08,54,27.40
2012,01,24,08,55,25.70
2012,01,24,08,56,22.50
2012,01,24,08,57,22.50
2012,01,24,08,58,27.40
2012,01,24,08,59,27.40
2012,01,24,09,00,32.20
2012,01,24,09,01,30.60
2012,01,24,09,02,38.60
2012,01,24,09,03,27.40
2012,01,24,09,04,37.00
2012,01,24,09,05,48.30
2012,01,24,09,06,37.00
2012,01,24,09,07,27.40
2012,01,24,09,08,30.60
2012,01,24,09,09,37.00
2012,01,24,09,10,41.80
2012,01,24,09,11,40.20
2012,01,24,09,12,41.80
2012,01,24,09,13,25.70
2012,01,24,09,14,29.00
2012,01,24,09,15,30.60
2012,01,24,09,16,41.80
2012,01,24,09,17,37.00
2012,01,24,09,18,40.20
2012,01,24,09,19,27.40
2012,01,24,09,20,38.60
2012,01,24,09,21,29.00
2012,01,24,09,22,27.40
2012,01,24,09,23,29.00
2012,01,24,09,24,29.00
2012,01,24,09,25,22.50
2012,01,24,09,26,25.70
2012,01,24,09,27,37.00
2012,01,24,09,28,40.20
2012,01,24,09,29,41.80
2012,01,24,09,30,33.80
2012,01,24,09,31,40.20
2012,01,24,09,32,38.60
2012,01,24,09,33,29.00
2012,01,24,09,34,27.40
2012,01,24,09,35,38.60
2012,01,24,09,36,33.80
2012,01,24,09,37,35.40
2012,01,24,09,38,32.20
2012,01,24,09,39,29.00
2012,01,24,09,40,43.50
2012,01,24,09,41,40.20
2012,01,24,09,42,37.00
2012,01,24,09,43,25.70
2012,01,24,09,44,30.60
2012,01,24,09,45,30.60
2012,01,24,09,46,27.40
2012,01,24,09,47,37.00
2012,01,24,09,48,32.20
2012,01,24,09,49,35.40
2012,01,24,09,50,27.40
2012,01,24,09,51,33.80
2012,01,24,09,52,29.00
2012,01,24,09,53,25.70
2012,01,24,09,54,29.00
2012,01,24,09,55,32.20
2012,01,24,09,56,20.90
2012,01,24,09,57,32.20
2012,01,24,09,58,32.20
2012,01,24,09,59,32.20
2012,01,24,10,00,29.00
2012,01,24,10,01,16.10
2012,01,24,10,02,20.90
2012,01,24,10,03,24.20
2012,01,24,10,04,32.20
2012,01,24,10,05,24.20
2012,01,24,10,06,20.90
2012,01,24,10,07,22.50
2012,01,24,10,08,29.00
2012,01,24,10,09,25.70
2012,01,24,10,10,20.90
2012,01,24,10,11,19.30
2012,01,24,10,12,25.70
2012,01,24,10,13,32.20
2012,01,24,10,14,29.00
2012,01,24,10,15,25.70
2012,01,24,10,16,30.60
2012,01,24,10,17,30.60
2012,01,24,10,18,19.30
2012,01,24,10,19,27.40
2012,01,24,10,20,20.90
2012,01,24,10,21,25.70
2012,01,24,10,22,24.20
2012,01,24,10,23,20.90
2012,01,24,10,24,17.70
2012,01,24,10,25,25.70
2012,01,24,10,26,25.70
2012,01,24,10,27,24.20
2012,01,24,10,28,24.20
2012,01,24,10,29,32.20
2012,01,24,10,30,24.20
2012,01,24,10,31,20.90
2012,01,24,10,32,19.30
2012,01,24,10,33,17.70
2012,01,24,10,34,25.70
2012,01,24,10,35,27.40
2012,01,24,10,36,29.00
2012,01,24,10,37,29.00
2012,01,24,10,38,22.50
2012,01,24,10,39,32.20
2012,01,24,10,40,29.00
2012,01,24,10,41,27.40
2012,01,24,10,42,32.20
2012,01,24,10,43,19.30
2012,01,24,10,44,27.40
2012,01,24,10,45,25.70
2012,01,24,10,46,20.90
2012,01,24,10,47,30.60
2012,01,24,10,48,33.80
2012,01,24,10,49,29.00
2012,01,24,10,50,25.70
2012,01,24,10,51,25.70
2012,01,24,10,52,25.70
2012,01,24,10,53,29.00
2012,01,24,10,54,25.70
2012,01,24,10,55,25.70
2012,01,24,10,56,25.70
2012,01,24,10,57,27.40
2012,01,24,10,58,27.40
2012,01,24,10,59,17.70
2012,01,24,11,00,16.10
2012,01,24,11,01,22.50
2012,01,24,11,02,30.60
2012,01,24,11,03,22.50
2012,01,24,11,04,27.40
2012,01,24,11,05,19.30
2012,01,24,11,06,25.70
2012,01,24,11,07,25.70
2012,01,24,11,08,29.00
2012,01,24,11,09,22.50
2012,01,24,11,10,17.70
2012,01,24,11,11,17.70
2012,01,24,11,12,12.90
2012,01,24,11,13,19.30
2012,01,24,11,14,20.90
2012,01,24,11,15,22.50
2012,01,24,11,16,27.40
2012,01,24,11,17,22.50
2012,01,24,11,18,24.20
2012,01,24,11,19,20.90
2012,01,24,11,20,14.50
2012,01,24,11,21,11.30
2012,01,24,11,22,11.30
2012,01,24,11,23,11.30
2012,01,24,11,24,19.30
2012,01,24,11,25,20.90
2012,01,24,11,26,16.10
2012,01,24,11,27,11.30
2012,01,24,11,28,16.10
2012,01,24,11,29,11.30
2012,01,24,11,30,9.60
2012,01,24,11,31,11.30
2012,01,24,11,32,20.90
2012,01,24,11,33,16.10
2012,01,24,11,34,8.10
2012,01,24,11,35,11.30
2012,01,24,11,36,11.30
2012,01,24,11,37,19.30
2012,01,24,11,38,4.80
2012,01,24,11,39,1.60
2012,01,24,11,40,4.80
2012,01,24,11,41,8.10
2012,01,24,11,42,11.30
2012,01,24,11,43,16.10
2012,01,24,11,44,9.60
2012,01,24,11,45,14.50
2012,01,24,11,46,17.70
2012,01,24,11,47,9.60
2012,01,24,11,48,14.50
2012,01,24,11,49,16.10
2012,01,24,11,50,14.50
2012,01,24,11,51,9.60
2012,01,24,11,52,11.30
2012,01,24,11,53,12.90
2012,01,24,11,54,8.10
2012,01,24,11,55,6.40
2012,01,24,11,56,1.60
2012,01,24,11,57,4.80
2012,01,24,11,58,1.60
2012,01,24,11,59,20.90
2012,01,24,12,00,8.10
2012,01,24,12,01,6.40
2012,01,24,12,02,9.60
2012,01,24,12,03,8.10
2012,01,24,12,04,17.70
2012,01,24,12,05,19.30
2012,01,24,12,06,11.30
2012,01,24,12,07,16.10
2012,01,24,12,08,8.10
2012,01,24,12,09,6.40
2012,01,24,12,10,11.30
2012,01,24,12,11,14.50
2012,01,24,12,12,17.70
2012,01,24,12,13,19.30
2012,01,24,12,14,19.30
2012,01,24,12,15,16.10
2012,01,24,12,16,11.30
2012,01,24,12,17,16.10
2012,01,24,12,18,16.10
2012,01,24,12,19,19.30
2012,01,24,12,20,16.10
2012,01,24,12,21,17.70
2012,01,24,12,22,24.20
2012,01,24,12,23,22.50
2012,01,24,12,24,22.50
2012,01,24,12,25,14.50
2012,01,24,12,26,33.80
2012,01,24,12,27,20.90
2012,01,24,12,28,16.10
2012,01,24,12,29,19.30
2012,01,24,12,30,22.50
2012,01,24,12,31,20.90
2012,01,24,12,32,22.50
2012,01,24,12,33,14.50
2012,01,24,12,34,17.70
2012,01,24,12,35,25.70
2012,01,24,12,36,24.20
2012,01,24,12,37,20.90
2012,01,24,12,38,17.70
2012,01,24,12,39,25.70
2012,01,24,12,40,25.70
2012,01,24,12,41,19.30
2012,01,24,12,42,20.90
2012,01,24,12,43,29.00
2012,01,24,12,44,29.00
2012,01,24,12,45,27.40
2012,01,24,12,46,19.30
2012,01,24,12,47,16.10
2012,01,24,12,48,25.70
2012,01,24,12,49,19.30
2012,01,24,12,50,20.90
2012,01,24,12,51,17.70
2012,01,24,12,52,30.60
2012,01,24,12,53,27.40
2012,01,24,12,54,24.20
2012,01,24,12,55,11.30
2012,01,24,12,56,19.30
2012,01,24,12,57,20.90
2012,01,24,12,58,20.90
2012,01,24,12,59,24.20
2012,01,24,13,00,14.50
2012,01,24,13,01,17.70
2012,01,24,13,02,14.50
2012,01,24,13,03,19.30
2012,01,24,13,04,17.70
2012,01,24,13,05,14.50
2012,01,24,13,06,30.60
2012,01,24,13,07,19.30
2012,01,24,13,08,22.50
2012,01,24,13,09,25.70
2012,01,24,13,10,20.90
2012,01,24,13,11,16.10
2012,01,24,13,12,19.30
2012,01,24,13,13,30.60
2012,01,24,13,14,19.30
2012,01,24,13,15,11.30
2012,01,24,13,16,22.50
2012,01,24,13,17,19.30
2012,01,24,13,18,30.60
2012,01,24,13,19,22.50
2012,01,24,13,20,22.50
2012,01,24,13,21,22.50
2012,01,24,13,22,29.00
2012,01,24,13,23,19.30
2012,01,24,13,24,19.30
2012,01,24,13,25,24.20
2012,01,24,13,26,16.10
2012,01,24,13,27,19.30
2012,01,24,13,28,19.30
2012,01,24,13,29,25.70
2012,01,24,13,30,25.70
2012,01,24,13,31,25.70
2012,01,24,13,32,17.70
2012,01,24,13,33,17.70
2012,01,24,13,34,25.70
2012,01,24,13,35,19.30
2012,01,24,13,36,6.40
2012,01,24,13,37,17.70
2012,01,24,13,38,20.90
2012,01,24,13,39,24.20
2012,01,24,13,40,11.30
2012,01,24,13,41,22.50
2012,01,24,13,42,14.50
2012,01,24,13,43,11.30
2012,01,24,13,44,16.10
2012,01,24,13,45,12.90
2012,01,24,13,46,9.60
2012,01,24,13,47,17.70
2012,01,24,13,48,17.70
2012,01,24,13,49,11.30
2012,01,24,13,50,16.10
2012,01,24,13,51,17.70
2012,01,24,13,52,14.50
2012,01,24,13,53,16.10
2012,01,24,13,54,11.30
2012,01,24,13,55,9.60
2012,01,24,13,56,11.30
2012,01,24,13,57,8.10
2012,01,24,13,58,14.50
2012,01,24,13,59,11.30
2012,01,24,14,00,16.10
2012,01,24,14,01,9.60
2012,01,24,14,02,9.60
2012,01,24,14,03,11.30
2012,01,24,14,04,17.70
2012,01,24,14,05,19.30
2012,01,24,14,06,14.50
2012,01,24,14,07,19.30
2012,01,24,14,08,11.30
2012,01,24,14,09,12.90
2012,01,24,14,10,6.40
2012,01,24,14,11,16.10
2012,01,24,14,12,9.60
2012,01,24,14,13,8.10
2012,01,24,14,14,16.10
2012,01,24,14,15,14.50
2012,01,24,14,16,9.60
2012,01,24,14,17,11.30
2012,01,24,14,18,8.10
2012,01,24,14,19,8.10
2012,01,24,14,20,6.40
2012,01,24,14,21,4.80
2012,01,24,14,22,8.10
2012,01,24,14,23,11.30
2012,01,24,14,24,8.10
2012,01,24,14,25,6.40
2012,01,24,14,26,9.60
2012,01,24,14,27,9.60
2012,01,24,14,28,6.40
2012,01,24,14,29,6.40
2012,01,24,14,30,4.80
2012,01,24,14,33,4.80
2012,01,24,14,34,4.80
2012,01,24,14,35,8.10
2012,01,24,14,36,6.40
2012,01,24,14,37,11.30
2012,01,24,14,38,8.10
2012,01,24,14,39,6.40
2012,01,24,14,40,8.10
2012,01,24,14,41,14.50
2012,01,24,14,42,9.60
2012,01,24,14,43,8.10
2012,01,24,14,44,12.90
2012,01,24,14,45,8.10
2012,01,24,14,46,9.60
2012,01,24,14,47,6.40
2012,01,24,14,48,9.60
2012,01,24,14,49,12.90
2012,01,24,14,50,19.30
2012,01,24,14,51,8.10
2012,01,24,14,52,11.30
2012,01,24,14,53,14.50
2012,01,24,14,54,8.10
2012,01,24,14,55,8.10
2012,01,24,14,56,11.30
2012,01,24,14,57,11.30
2012,01,24,14,58,16.10
2012,01,24,14,59,9.60
2012,01,24,15,00,8.10
2012,01,24,15,01,14.50
2012,01,24,15,02,17.70
2012,01,24,15,03,11.30
2012,01,24,15,04,16.10
2012,01,24,15,05,16.10
2012,01,24,15,06,14.50
2012,01,24,15,07,11.30
2012,01,24,15,08,19.30
2012,01,24,15,09,9.60
2012,01,24,15,10,19.30
2012,01,24,15,11,19.30
2012,01,24,15,12,14.50
2012,01,24,15,13,20.90
2012,01,24,15,14,17.70
2012,01,24,15,15,19.30
2012,01,24,15,16,22.50
2012,01,24,15,17,24.20
2012,01,24,15,18,22.50
2012,01,24,15,19,24.20
2012,01,24,15,20,19.30
2012,01,24,15,21,17.70
2012,01,24,15,22,17.70
2012,01,24,15,23,20.90
2012,01,24,15,24,17.70
2012,01,24,15,25,16.10
2012,01,24,15,26,17.70
2012,01,24,15,27,16.10
2012,01,24,15,28,11.30
2012,01,24,15,29,16.10
2012,01,24,15,30,19.30
2012,01,24,15,31,19.30
2012,01,24,15,32,22.50
2012,01,24,15,33,22.50
2012,01,24,15,34,19.30
2012,01,24,15,35,8.10
2012,01,24,15,36,9.60
2012,01,24,15,37,9.60
2012,01,24,15,38,11.30
2012,01,24,15,39,11.30
2012,01,24,15,40,16.10
2012,01,24,15,41,9.60
2012,01,24,15,42,9.60
2012,01,24,15,43,6.40
2012,01,24,15,44,8.10
2012,01,24,15,45,6.40
2012,01,24,15,46,6.40
2012,01,24,15,47,6.40
2012,01,24,15,48,8.10
2012,01,24,15,49,8.10
2012,01,24,15,50,6.40
2012,01,24,15,51,8.10
2012,01,24,15,53,1.60
2012,01,24,15,54,1.60
2012,01,24,15,55,1.60
2012,01,24,15,57,1.60
2012,01,24,15,58,3.20
2012,01,24,15,59,3.20
2012,01,24,16,00,4.80
2012,01,24,16,02,1.60
2012,01,24,16,03,3.20
2012,01,24,16,04,6.40
2012,01,24,16,05,9.60
2012,01,24,16,06,4.80
2012,01,24,16,07,8.10
2012,01,24,16,08,6.40
2012,01,24,16,09,4.80
2012,01,24,16,10,6.40
2012,01,24,16,11,6.40
2012,01,24,16,12,4.80
2012,01,24,16,13,4.80
2012,01,24,16,14,4.80
2012,01,24,16,15,6.40
2012,01,24,16,16,8.10
2012,01,24,16,17,4.80
2012,01,24,16,18,3.20
2012,01,24,16,19,9.60
2012,01,24,16,20,9.60
2012,01,24,16,21,11.30
2012,01,24,16,22,6.40
2012,01,24,16,23,14.50
2012,01,24,16,24,16.10
2012,01,24,16,25,11.30
2012,01,24,16,26,9.60
2012,01,24,16,27,6.40
2012,01,24,16,28,4.80
2012,01,24,16,29,6.40
2012,01,24,16,30,6.40
2012,01,24,16,31,9.60
2012,01,24,16,32,11.30
2012,01,24,16,33,1.60
2012,01,24,16,34,4.80
2012,01,24,16,35,6.40
2012,01,24,16,36,4.80
2012,01,24,16,37,4.80
2012,01,24,16,38,6.40
2012,01,24,16,39,11.30
2012,01,24,16,40,9.60
2012,01,24,16,41,9.60
2012,01,24,16,42,19.30
2012,01,24,16,43,11.30
2012,01,24,16,44,11.30
2012,01,24,16,45,14.50
2012,01,24,16,46,14.50
2012,01,24,16,47,17.70
2012,01,24,16,48,8.10
2012,01,24,16,49,14.50
2012,01,24,16,50,14.50
2012,01,24,16,51,14.50
2012,01,24,16,52,14.50
2012,01,24,16,53,9.60
2012,01,24,16,54,14.50
2012,01,24,16,55,11.30
2012,01,24,16,56,14.50
2012,01,24,16,57,16.10
2012,01,24,16,58,11.30
2012,01,24,16,59,9.60
2012,01,24,17,00,9.60
2012,01,24,17,01,6.40
2012,01,24,17,02,6.40
2012,01,24,17,03,11.30
2012,01,24,17,04,8.10
2012,01,24,17,05,11.30
2012,01,24,17,06,8.10
2012,01,24,17,07,9.60
2012,01,24,17,08,4.80
2012,01,24,17,09,8.10
2012,01,24,17,10,8.10
2012,01,24,17,11,9.60
2012,01,24,17,12,9.60
2012,01,24,17,13,9.60
2012,01,24,17,14,9.60
2012,01,24,17,15,14.50
2012,01,24,17,16,9.60
2012,01,24,17,17,12.90
2012,01,24,17,18,11.30
2012,01,24,17,19,6.40
2012,01,24,17,20,8.10
2012,01,24,17,21,8.10
2012,01,24,17,22,14.50
2012,01,24,17,23,12.90
2012,01,24,17,24,19.30
2012,01,24,17,25,11.30
2012,01,24,17,26,17.70
2012,01,24,17,27,19.30
2012,01,24,17,28,17.70
2012,01,24,17,29,16.10
2012,01,24,17,30,19.30
2012,01,24,17,31,16.10
2012,01,24,17,32,16.10
2012,01,24,17,33,19.30
2012,01,24,17,34,17.70
2012,01,24,17,35,16.10
2012,01,24,17,36,22.50
2012,01,24,17,37,17.70
2012,01,24,17,38,20.90
2012,01,24,17,39,19.30
2012,01,24,17,40,20.90
2012,01,24,17,41,17.70
2012,01,24,17,42,22.50
2012,01,24,17,43,22.50
2012,01,24,17,44,22.50
2012,01,24,17,45,19.30
2012,01,24,17,46,17.70
2012,01,24,17,47,20.90
2012,01,24,17,48,17.70
2012,01,24,17,49,24.20
2012,01,24,17,50,22.50
2012,01,24,17,51,20.90
2012,01,24,17,52,20.90
2012,01,24,17,53,27.40
2012,01,24,17,54,16.10
2012,01,24,17,55,24.20
2012,01,24,17,56,20.90
2012,01,24,17,57,22.50
2012,01,24,17,58,22.50
2012,01,24,17,59,17.70
2012,01,24,18,00,24.20
2012,01,24,18,01,22.50
2012,01,24,18,02,20.90
2012,01,24,18,03,17.70
2012,01,24,18,04,20.90
2012,01,24,18,05,19.30
2012,01,24,18,06,14.50
2012,01,24,18,07,17.70
2012,01,24,18,08,17.70
2012,01,24,18,09,16.10
2012,01,24,18,10,17.70
2012,01,24,18,11,19.30
2012,01,24,18,12,22.50
2012,01,24,18,13,16.10
2012,01,24,18,14,17.70
2012,01,24,18,15,19.30
2012,01,24,18,16,17.70
2012,01,24,18,17,19.30
2012,01,24,18,18,17.70
2012,01,24,18,19,17.70
2012,01,24,18,20,14.50
2012,01,24,18,21,14.50
2012,01,24,18,22,17.70
2012,01,24,18,23,17.70
2012,01,24,18,24,19.30
2012,01,24,18,25,17.70
2012,01,24,18,26,16.10
2012,01,24,18,27,14.50
2012,01,24,18,28,22.50
2012,01,24,18,29,22.50
2012,01,24,18,30,19.30
2012,01,24,18,31,20.90
2012,01,24,18,32,27.40
2012,01,24,18,33,35.40
2012,01,24,18,34,27.40
2012,01,24,18,35,27.40
2012,01,24,18,36,37.00
2012,01,24,18,37,35.40
2012,01,24,18,38,37.00
2012,01,24,18,39,40.20
2012,01,24,18,40,49.90
2012,01,24,18,41,37.00
2012,01,24,18,42,22.50
2012,01,24,18,43,35.40
2012,01,24,18,44,29.00
2012,01,24,18,45,25.70
2012,01,24,18,46,30.60
2012,01,24,18,47,37.00
2012,01,24,18,48,35.40
2012,01,24,18,49,25.70
2012,01,24,18,50,25.70
2012,01,24,18,51,27.40
2012,01,24,18,52,33.80
2012,01,24,18,53,46.70
2012,01,24,18,54,38.60
2012,01,24,18,55,40.20
2012,01,24,18,56,27.40
2012,01,24,18,57,37.00
2012,01,24,18,58,33.80
2012,01,24,18,59,40.20
2012,01,24,19,00,37.00
2012,01,24,19,01,37.00
2012,01,24,19,02,25.70
2012,01,24,19,03,22.50
2012,01,24,19,04,30.60
2012,01,24,19,05,25.70
2012,01,24,19,06,32.20
2012,01,24,19,07,27.40
2012,01,24,19,08,38.60
2012,01,24,19,09,24.20
2012,01,24,19,10,24.20
2012,01,24,19,11,20.90
2012,01,24,19,12,19.30
2012,01,24,19,13,24.20
2012,01,24,19,14,37.00
2012,01,24,19,15,27.40
2012,01,24,19,16,29.00
2012,01,24,19,17,22.50
2012,01,24,19,18,30.60
2012,01,24,19,19,30.60
2012,01,24,19,20,35.40
2012,01,24,19,21,24.20
2012,01,24,19,22,33.80
2012,01,24,19,23,29.00
2012,01,24,19,24,30.60
2012,01,24,19,25,33.80
2012,01,24,19,26,35.40
2012,01,24,19,27,27.40
2012,01,24,19,28,30.60
2012,01,24,19,29,30.60
2012,01,24,19,30,22.50
2012,01,24,19,31,20.90
2012,01,24,19,32,24.20
2012,01,24,19,33,24.20
2012,01,24,19,34,38.60
2012,01,24,19,35,22.50
2012,01,24,19,36,38.60
2012,01,24,19,37,25.70
2012,01,24,19,38,29.00
2012,01,24,19,39,29.00
2012,01,24,19,40,33.80
2012,01,24,19,41,35.40
2012,01,24,19,42,40.20
2012,01,24,19,43,35.40
2012,01,24,19,44,43.50
2012,01,24,19,45,40.20
2012,01,24,19,46,40.20
2012,01,24,19,47,40.20
2012,01,24,19,48,53.10
2012,01,24,19,49,45.10
2012,01,24,19,50,33.80
2012,01,24,19,51,53.10
2012,01,24,19,52,53.10
2012,01,24,19,53,40.20
2012,01,24,19,54,37.00
2012,01,24,19,55,29.00
2012,01,24,19,56,27.40
2012,01,24,19,57,46.70
2012,01,24,19,58,51.50
2012,01,24,19,59,41.80
2012,01,24,20,00,32.20
2012,01,24,20,01,40.20
2012,01,24,20,02,37.00
2012,01,24,20,03,41.80
2012,01,24,20,04,48.30
2012,01,24,20,05,38.60
2012,01,24,20,06,51.50
2012,01,24,20,07,32.20
2012,01,24,20,08,38.60
2012,01,24,20,09,48.30
2012,01,24,20,10,32.20
2012,01,24,20,11,33.80
2012,01,24,20,12,29.00
2012,01,24,20,13,51.50
2012,01,24,20,14,49.90
2012,01,24,20,15,40.20
2012,01,24,20,16,45.10
2012,01,24,20,17,38.60
2012,01,24,20,18,35.40
2012,01,24,20,19,25.70
2012,01,24,20,20,33.80
2012,01,24,20,21,32.20
2012,01,24,20,22,32.20
2012,01,24,20,23,32.20
2012,01,24,20,24,20.90
2012,01,24,20,25,38.60
2012,01,24,20,26,37.00
2012,01,24,20,27,38.60
2012,01,24,20,28,30.60
2012,01,24,20,29,41.80
2012,01,24,20,30,33.80
2012,01,24,20,31,37.00
2012,01,24,20,32,22.50
2012,01,24,20,33,24.20
2012,01,24,20,34,20.90
2012,01,24,20,35,29.00
2012,01,24,20,36,25.70
2012,01,24,20,37,29.00
2012,01,24,20,38,30.60
2012,01,24,20,39,27.40
2012,01,24,20,40,32.20
2012,01,24,20,41,32.20
2012,01,24,20,42,35.40
2012,01,24,20,43,22.50
2012,01,24,20,44,30.60
2012,01,24,20,45,20.90
2012,01,24,20,46,38.60
2012,01,24,20,47,41.80
2012,01,24,20,48,35.40
2012,01,24,20,49,25.70
2012,01,24,20,50,35.40
2012,01,24,20,51,30.60
2012,01,24,20,52,25.70
2012,01,24,20,53,40.20
2012,01,24,20,54,38.60
2012,01,24,20,55,30.60
2012,01,24,20,56,25.70
2012,01,24,20,57,27.40
2012,01,24,20,58,30.60
2012,01,24,20,59,40.20
2012,01,24,21,00,41.80
2012,01,24,21,01,38.60
2012,01,24,21,02,43.50
2012,01,24,21,03,56.30
2012,01,24,21,04,46.70
2012,01,24,21,05,49.90
2012,01,24,21,06,41.80
2012,01,24,21,07,29.00
2012,01,24,21,08,24.20
2012,01,24,21,09,38.60
2012,01,24,21,10,27.40
2012,01,24,21,11,38.60
2012,01,24,21,12,27.40
2012,01,24,21,13,37.00
2012,01,24,21,14,46.70
2012,01,24,21,15,38.60
2012,01,24,21,16,33.80
2012,01,24,21,17,41.80
2012,01,24,21,18,41.80
2012,01,24,21,19,25.70
2012,01,24,21,20,40.20
2012,01,24,21,21,37.00
2012,01,24,21,22,24.20
2012,01,24,21,23,40.20
2012,01,24,21,24,32.20
2012,01,24,21,25,24.20
2012,01,24,21,26,32.20
2012,01,24,21,27,37.00
2012,01,24,21,28,41.80
2012,01,24,21,29,40.20
2012,01,24,21,30,41.80
2012,01,24,21,31,45.10
2012,01,24,21,32,45.10
2012,01,24,21,33,35.40
2012,01,24,21,34,38.60
2012,01,24,21,35,38.60
2012,01,24,21,36,33.80
2012,01,24,21,37,41.80
2012,01,24,21,38,35.40
2012,01,24,21,39,29.00
2012,01,24,21,40,48.30
2012,01,24,21,41,45.10
2012,01,24,21,42,40.20
2012,01,24,21,43,64.40
2012,01,24,21,44,51.50
2012,01,24,21,45,41.80
2012,01,24,21,46,53.10
2012,01,24,21,47,54.70
2012,01,24,21,48,59.50
2012,01,24,21,49,56.30
2012,01,24,21,50,49.90
2012,01,24,21,51,61.20
2012,01,24,21,52,45.10
2012,01,24,21,53,56.30
2012,01,24,21,54,53.10
2012,01,24,21,55,38.60
2012,01,24,21,56,35.40
2012,01,24,21,57,54.70
2012,01,24,21,58,41.80
2012,01,24,21,59,56.30
2012,01,24,22,00,45.10
2012,01,24,22,01,30.60
2012,01,24,22,02,41.80
2012,01,24,22,03,35.40
2012,01,24,22,04,40.20
2012,01,24,22,05,30.60
2012,01,24,22,06,37.00